Погода в Драйдене

Канада     49°47′14″N   92°50′54″W
темп.,
°C
ветер,
м/с
пор.,
м/с
влажн.,
%
обл.,
%
осадки,
мм/ч
давл.,
гПа
погр.,
м
4 декабря, сб
сб401:00−10зсз61387100 0.3 1019917
04:00−10зсз51287100 0.1 1021957
07:00−11зсз51284100 0.1 10231110
10:00−12сз41086100 0.1 1025898
13:00−11зсз5875100 0.1 1025921
16:00−10з387979 0.0 1024773
19:00−12юз1494100 0.0 102486
22:00−12ю2696100 0.0 1023137
5 декабря, вс
вс501:00−11ююв2596100 0.0 1021110
04:00−9юв2694100 0.0 1018160
07:00−8вюв2793100 0.0 1015220
10:00−7в3794100 0.1 1013252
13:00−5св4994100 1.6 1011424
16:00−5св51094100 1.6 1010526
19:00−6с51094100 1.8 1012550
22:00−10с51191100 0.1 1014593
6 декабря, пн
пн601:00−13ссз51192100 0.3 1017740
04:00−17сз61090100 0.3 1020712
07:00−21сз5108657 0.4 1023578
10:00−23сз4118722 0.0 1024591
13:00−20зсз4777100 0.0 1023864
16:00−18зсз4778100 0.0 10221082
19:00−19з498394 0.0 1022846
22:00−20з379061 0.0 1023370
7 декабря, вт
вт701:00−20з269497 0.0 1023233
04:00−20зюз2693100 0.0 1024366
07:00−19зюз2591100 0.0 1024397
10:00−18з2488100 0.0 1024389
13:00−15з237383 0.0 1024675
16:00−15з237496 0.0 1023700
19:00−19ююз119623 0.0 10249
22:00−19ю119979 0.0 102418
8 декабря, ср
ср801:00−21ю1110030 0.0 102416
04:00−22ююв11995 0.0 102413
07:00−22ююв111005 0.0 102417
10:00−19ююв23965 0.0 102381
13:00−13ю24775 0.0 1021449
16:00−12ю25795 0.0 1020472
19:00−17ююв27935 0.0 1019106
22:00−16ююв3109127 0.0 1018209